Dewpoint
31 30 30 29 29 30 32 33 32 30 29 32 35 35 39 46 50 50 51 50 53 57 66 67 72 72 72 71 71 71 73 72 73 74 74 75 75 75 74 76 75 74 72 73
33 31 30 29 29 28 28 29 29 29 28 38 50 52 42 46 59 63 60 62 63 61 63 67 69 74 73 74 76 74 74 72 75 76 76 75 76 77 76 75 75 75 75 74
30 30 29 28 28 27 27 29 32 36 41 54 55 57 61 58 55 60 64 66 67 68 68 70 66 72 72 74 75 77 78 76 76 76 76 76 76 76 76 75 76 75 75 74
26 28 25 26 31 36 33 43 44 45 50 54 53 59 60 61 57 60 61 63 66 68 70 71 69 68 72 73 76 77 77 77 77 77 76 76 76 76 76 76 75 75 75 75
28 25 25 29 41 40 41 41 46 46 47 48 50 59 57 60 63 63 61 61 60 60 67 72 72 72 73 74 75 75 75 76 77 77 76 76 75 76 76 76 76 75 75 75
29 28 26 42 44 44 41 39 51 48 46 47 48 47 56 57 60 62 63 61 59 59 60 65 70 73 73 72 73 73 74 75 75 75 76 76 76 77 77 77 76 75 76 76
26 25 37 41 39 45 36 44 48 50 50 46 46 48 50 54 56 56 59 61 60 58 61 66 67 70 72 73 73 75 75 75 75 75 74 75 76 77 77 77 76 76 76 76
30 31 34 40 37 37 43 50 48 50 52 45 46 46 46 47 50 56 57 58 58 57 59 63 66 68 69 71 74 75 76 75 75 75 76 76 76 76 76 75 75 71 67 66
32 32 45 45 44 45 46 46 47 48 46 47 44 44 45 47 48 49 51 54 53 55 59 62 65 68 70 73 71 72 72 72 72 72 73 75 74 72 71 69 70 67 65 64
41 40 41 44 44 46 48 48 49 47 47 47 46 46 46 45 46 48 49 52 50 55 58 61 63 65 68 70 72 73 73 72 72 73 72 73 72 69 68 68 67 66 65 64
42 43 45 45 47 47 48 50 50 51 51 49 48 49 50 50 53 49 51 53 55 57 59 62 64 64 66 67 68 70 71 71 72 70 70 70 71 70 70 67 64 64 67 65
43 47 48 48 49 50 50 51 52 52 52 52 52 51 52 52 54 54 55 54 55 58 59 61 63 64 67 66 65 67 68 64 64 62 67 69 69 70 59 56 52 52 53 61
48 49 49 51 51 52 52 52 52 52 53 52 53 53 53 54 54 54 55 55 57 57 58 61 63 62 65 68 66 66 63 63 60 59 61 66 67 65 65 57 50 49 48 50
48 48 46 48 51 51 51 50 50 50 50 51 52 53 54 53 55 57 55 57 56 57 59 59 59 59 61 64 66 66 66 59 62 59 56 56 62 62 61 63 64 64 51 52
47 42 45 50 50 50 50 50 49 48 48 49 50 51 52 53 54 55 59 58 57 59 57 56 58 58 61 60 62 63 63 61 59 57 55 53 54 59 56 56 58 64 63 53
42 39 43 47 48 50 51 51 50 49 50 50 50 51 52 53 54 54 55 56 58 58 59 57 55 57 62 61 63 59 59 59 58 58 55 55 53 53 52 56 56 54 61 62
38 39 45 47 49 50 50 51 51 50 51 51 50 52 52 53 54 54 54 55 58 61 61 61 60 61 59 62 60 58 57 57 57 55 54 52 50 49 48 49 52 53 53 60
37 40 45 48 50 51 50 51 51 50 50 51 51 51 51 51 52 55 55 57 57 59 59 63 62 62 60 59 60 58 57 55 55 54 54 54 51 50 49 49 49 50 52 55
37 40 45 48 51 52 52 51 51 51 51 51 51 50 51 51 53 55 57 58 58 57 58 61 60 62 63 62 61 58 57 57 56 53 51 50 51 50 48 47 48 50 50 57
38 40 46 45 50 52 51 51 51 51 51 50 50 50 50 51 51 52 53 56 55 54 56 58 61 61 63 62 61 57 56 57 57 54 52 50 48 47 51 49 49 51 51 61
39 41 43 45 46 52 51 51 52 52 51 51 50 50 50 50 50 51 49 48 50 52 53 57 61 64 64 63 62 59 56 54 55 54 54 52 51 49 50 52 51 52 52 58
41 42 43 43 44 46 48 46 48 51 52 51 51 51 51 50 50 50 51 49 51 51 53 53 54 56 58 60 61 61 60 57 56 53 52 52 52 52 56 58 57 55 62 64
43 43 43 43 43 46 45 45 46 49 52 51 52 52 52 51 50 49 47 50 50 50 51 52 53 56 57 60 61 62 60 58 60 59 55 55 58 61 61 60 59 57 60 63
45 45 43 43 42 41 48 52 45 50 54 53 52 51 50 51 51 50 51 50 49 49 50 51 52 53 54 55 56 56 56 56 56 59 59 55 60 58 60 60 60 61 63 63
46 45 42 43 45 37 47 47 47 44 50 51 53 51 51 48 50 48 49 50 49 49 49 50 51 51 51 51 51 52 52 52 52 54 54 55 55 55 57 60 59 61 64 64
46 38 37 44 38 35 35 37 36 39 39 42 44 47 45 46 46 46 48 48 49 48 49 49 49 50 50 50 50 50 49 49 50 50 50 50 51 50 51 52 53 53 53 58
41 39 36 35 34 35 35 37 36 36 38 40 41 44 46 46 46 45 46 46 47 49 49 49 49 48 49 49 48 49 49 48 46 48 48 48 48 48 48 48 49 49 50 49
Lifted_Index
1 1 1 1 0 -0 -0 -0 -0 0 0 0 -0 -1 -1 -1 -2 -3 -4 -5 -5 -6 -7 -8 -9 -9 -9 -9 -9 -9 -9 -9 -9 -9 -9 -8 -8 -8 -7 -7 -6 -6 -5 -5
2 2 2 2 1 0 -0 -0 -0 -0 -0 -1 -2 -2 -2 -2 -2 -4 -6 -7 -7 -7 -8 -8 -9 -9 -10 -10 -10 -10 -10 -10 -10 -10 -9 -9 -9 -8 -8 -7 -7 -6 -6 -6
3 2 2 2 1 -0 -1 -1 -1 -1 -1 -2 -2 -2 -3 -3 -2 -4 -7 -8 -9 -9 -9 -9 -9 -9 -10 -10 -10 -10 -11 -11 -10 -10 -10 -10 -9 -9 -9 -8 -8 -8 -7 -7
3 2 2 1 -1 -1 -1 -1 -2 -2 -2 -1 -1 -2 -2 -2 -1 -2 -5 -7 -7 -8 -9 -9 -9 -9 -10 -10 -11 -11 -11 -11 -11 -11 -10 -10 -10 -10 -10 -9 -9 -9 -8 -8
2 1 0 -1 -1 -1 -1 -2 -2 -2 -2 -1 -1 -1 -2 -1 -1 -2 -3 -4 -5 -6 -7 -9 -9 -9 -10 -10 -10 -10 -10 -10 -11 -11 -10 -10 -10 -10 -10 -10 -10 -9 -9 -9
1 0 -1 -1 -1 -1 -1 -1 -1 -1 -1 -1 -1 -1 -1 -1 -1 -2 -3 -3 -3 -4 -5 -7 -8 -9 -10 -10 -10 -10 -10 -10 -10 -10 -10 -10 -10 -10 -10 -10 -10 -9 -9 -9
1 0 -1 -0 0 -0 -1 -1 -1 -1 -1 -1 -0 -0 -1 -1 -2 -2 -2 -2 -2 -3 -4 -5 -7 -8 -9 -9 -10 -10 -10 -10 -10 -9 -9 -10 -10 -10 -10 -9 -9 -9 -8 -8
2 1 0 0 1 0 -1 -1 -1 -0 -0 -0 -0 0 0 -0 -1 -1 -1 -1 -2 -2 -3 -4 -5 -7 -8 -8 -9 -9 -10 -9 -9 -9 -9 -9 -9 -9 -9 -8 -8 -7 -6 -6
1 1 0 0 0 0 -0 -1 -0 -0 -0 0 0 1 1 0 -0 -0 -0 -1 -1 -1 -2 -3 -4 -5 -6 -7 -8 -8 -9 -9 -8 -8 -8 -8 -8 -7 -6 -6 -6 -5 -4 -3
1 1 1 1 0 1 1 0 0 0 0 0 1 1 1 1 0 0 -0 -0 -1 -1 -2 -2 -3 -3 -4 -6 -7 -7 -8 -8 -8 -8 -8 -7 -7 -6 -5 -4 -3 -3 -3 -3
1 1 1 1 1 1 2 1 1 1 0 0 1 1 1 0 0 0 0 -0 -0 -1 -2 -3 -3 -3 -3 -4 -5 -6 -7 -7 -7 -7 -7 -7 -7 -6 -5 -4 -3 -2 -2 -2
2 2 2 2 2 2 2 2 2 1 1 1 1 1 0 0 -0 0 -0 -0 -1 -1 -2 -2 -3 -3 -3 -3 -4 -5 -5 -5 -5 -5 -5 -6 -7 -6 -5 -4 -3 -2 -2 -2
3 3 3 3 2 3 3 3 3 3 2 2 1 1 1 1 0 0 -0 -0 -1 -1 -1 -2 -2 -3 -3 -4 -4 -4 -4 -4 -3 -3 -3 -4 -5 -5 -4 -4 -4 -3 -2 -2
3 3 3 3 3 4 4 4 4 4 4 3 3 2 2 2 1 1 0 -0 -1 -1 -1 -1 -2 -2 -3 -3 -4 -4 -4 -4 -3 -2 -1 -1 -2 -2 -2 -3 -3 -3 -2 -2
4 4 4 3 4 5 5 5 5 5 5 4 4 4 4 3 3 2 1 0 -0 -1 -1 -1 -1 -2 -2 -3 -3 -3 -3 -3 -3 -1 -1 -0 -0 -0 -1 -1 -1 -2 -2 -2
5 5 4 4 4 5 5 5 5 6 5 5 5 4 4 4 3 2 2 1 0 -0 -1 -1 -1 -1 -2 -3 -3 -3 -3 -3 -2 -1 -1 -0 0 0 0 0 -0 -1 -1 -1
6 6 5 4 4 5 5 6 6 6 6 6 5 4 4 3 3 3 2 2 1 -0 -1 -1 -1 -1 -1 -2 -2 -2 -2 -2 -2 -2 -1 -0 0 1 1 0 -0 -0 -0 -1
7 7 6 5 5 5 5 6 7 7 7 6 5 4 4 3 3 3 2 2 1 0 -0 -1 -1 -1 -1 -1 -2 -2 -2 -2 -2 -1 -1 -0 0 1 1 1 0 -0 -0 -0
7 7 6 5 5 5 6 6 7 6 6 6 5 4 3 3 3 3 2 2 1 1 0 0 -1 -1 -1 -1 -1 -1 -1 -1 -1 -1 -1 -0 0 1 1 1 0 0 -0 -0
7 7 7 6 5 5 6 6 6 6 5 5 4 4 3 3 3 3 2 2 2 1 1 1 0 -1 -1 -1 -1 -1 -0 -0 -1 -1 -1 -1 -0 0 0 0 0 -0 -1 -1
7 7 7 6 5 5 5 6 6 5 5 5 4 4 4 4 4 4 3 3 3 3 2 2 1 -0 -1 -1 -1 -1 -0 -0 -1 -1 -1 -1 -1 -1 -1 -1 -1 -1 -1 -1
6 6 6 6 6 5 5 6 5 5 5 5 5 5 5 5 5 5 5 4 4 4 3 2 1 0 -0 -0 -0 -1 -1 -1 -1 -2 -2 -2 -2 -2 -2 -1 -1 -1 -1 -1
6 6 6 6 6 6 6 6 6 5 5 6 6 6 7 7 7 6 6 6 6 5 4 2 1 1 1 1 0 -0 -0 -1 -1 -2 -2 -2 -2 -2 -1 -0 -0 -1 -1 -1
5 5 6 6 6 6 6 6 6 6 5 5 6 6 7 7 8 8 8 7 7 6 5 3 2 1 1 1 1 0 -0 -1 -1 -2 -2 -1 -1 -1 -0 0 0 -1 -2 -3
5 5 6 6 6 7 7 7 7 6 6 5 6 6 7 7 8 9 9 9 8 7 6 4 3 2 2 1 1 0 0 -0 -0 -1 -0 -0 -0 -0 -0 0 0 -0 -2 -3
5 5 6 6 6 7 7 7 7 7 7 6 6 6 6 7 8 8 9 10 10 9 8 6 5 4 3 3 2 2 2 1 1 1 1 0 -0 -0 -0 -0 0 -0 -1 -2
4 5 6 6 6 7 7 8 8 8 7 7 6 6 6 7 7 8 9 10 10 10 9 8 6 6 5 5 4 4 4 3 3 2 2 1 0 0 -0 -0 -0 -0 -1 -1